Weather History for Belize, Belize

Change the Weather History Date:

Monday, August 18, 2014

  Actual Average Record
Temperature  
Mean Temperature 84 °F -  
Max Temperature 89 °F 88 °F 91 °F (2008)
Min Temperature 78 °F 75 °F 71 °F (2012)
Cooling Degree Days 18    
Growing Degree Days 34 (Base 50)    
Moisture  
Dew Point 77 °F    
Average Humidity 76    
Maximum Humidity 94    
Minimum Humidity 64    
Precipitation  
Precipitation 0.20 in 0.32 in - ()
Sea Level Pressure  
Sea Level Pressure 29.93 in    
Wind  
Wind Speed 5 mph ()    
Max Wind Speed 9 mph    
Max Gust Speed -    
Visibility 7.8 miles    
Events Rain , Thunderstorm    
Averages and records for this station are not official NWS values.
T = Trace of Precipitation, MM = Missing Value Source: Averaged Metar Reports

Daily Weather History Graph

Daily Weather History Graph

Search for Another Location

Airport:

Trip Planner

Search our weather history database for the weather conditions in past years. The results will help you decide how hot, cold, wet, or windy it might be!

Date:

Astronomy

Aug. 18, 2014 Rise Set
Actual Time 5:36 AM CST 6:17 PM CST
Civil Twilight 5:14 AM CST 6:39 PM CST
Nautical Twilight 4:47 AM CST 7:05 PM CST
Astronomical Twilight 4:21 AM CST 7:32 PM CST
Moon No Moon Rise 1:07 PM CST (8/18)
Length of Visible Light 13h 25m
Length of Day
12h 40m
Last Quarter, 38% of the Moon is Illuminated
Aug 18
Last Quarter
Aug 25
New
Sep 2
First Quarter
Sep 8
Full
Sep 15
Last Quarter

Hourly Weather History & Observations

Time (CST) Temp. Heat Index Dew Point Humidity Pressure Visibility Wind Dir Wind Speed Gust Speed Precip Events Conditions
12:00 AM 83 °F - 78 °F 80% 29.98 in 12 mi East 9.2 mph - -   Mostly Cloudy
3:00 AM 79 °F - 77 °F 91% 29.94 in 12 mi Calm Calm - - Rain Light Rain Showers
5:00 AM 78.8 °F - 77.0 °F 94% 29.94 in 6.2 mi Calm Calm - N/A   Scattered Clouds
6:00 AM 79 °F - 76 °F 89% 29.95 in 12 mi Calm Calm - -   Partly Cloudy
6:00 AM 78.8 °F - 77.0 °F 94% 29.95 in 6.2 mi Calm Calm - N/A   Partly Cloudy
7:00 AM 82.4 °F 90.9 °F 77.0 °F 84% 29.96 in 6.2 mi ESE 4.6 mph - N/A   Partly Cloudy
8:00 AM 86.0 °F 99.3 °F 78.8 °F 79% 29.96 in 6.2 mi East 6.9 mph - N/A   Partly Cloudy
9:00 AM 87 °F - 76 °F 64% 29.97 in - East 8.1 mph - -  
9:00 AM 87.8 °F 99.7 °F 77.0 °F 70% 29.96 in 6.2 mi East 8.1 mph - N/A   Partly Cloudy
10:00 AM 89.6 °F 102.2 °F 77.0 °F 66% 29.96 in 6.2 mi East 8.1 mph - N/A   Scattered Clouds
11:00 AM 87.8 °F 99.7 °F 77.0 °F 70% 29.95 in 6.2 mi East 8.1 mph - N/A   Scattered Clouds
12:00 PM 86 °F - 78 °F 71% 29.95 in 11 mi East 9.2 mph - - Rain Light Rain Showers
12:00 PM 86.0 °F 99.3 °F 78.8 °F 79% 29.95 in 6.2 mi East 9.2 mph - N/A Rain Light Rain Showers
1:00 PM 87.8 °F 102.5 °F 78.8 °F 75% 29.92 in 6.2 mi East 9.2 mph - N/A   Mostly Cloudy
2:00 PM 87.8 °F 99.7 °F 77.0 °F 70% 29.91 in 6.2 mi East 9.2 mph - N/A   Scattered Clouds
3:00 PM 89 °F - 78 °F 64% 29.90 in 12 mi East 8.1 mph - -   Partly Cloudy
3:00 PM 89.6 °F 104.7 °F 78.8 °F 70% 29.89 in 6.2 mi East 8.1 mph - N/A   Scattered Clouds
4:00 PM 89.6 °F 104.7 °F 78.8 °F 70% 29.89 in 6.2 mi ENE 9.2 mph - N/A   Scattered Clouds
5:00 PM 87.8 °F 99.7 °F 77.0 °F 70% 29.88 in 6.2 mi East 9.2 mph - N/A   Scattered Clouds
6:00 PM 85 °F - 77 °F 72% 29.88 in 12 mi East 8.1 mph - -   Partly Cloudy
6:00 PM 86.0 °F 96.9 °F 77.0 °F 74% 29.87 in 6.2 mi East 8.1 mph - N/A   Scattered Clouds
9:00 PM 78 °F - 73 °F 81% 29.95 in 6 mi SSE 6.9 mph - - Rain , Thunderstorm Thunderstorms and Rain